Flag for Netherlands Weather past 2 weeks in Apeldoorn, Netherlands

Now
41 °F

Light rain. Mostly cloudy.


Feels Like: 32 °F
Forecast: 37 / 44 °F
Wind: 18 mph from South

Location: Deelen

Current Time: Mar 1, 2015 at 4:58:47 AM

Latest Report: Mar 1, 2015 at 4:25 AM


Visibility: N/A

Pressure: 29.47 "Hg

Humidity: 93%

Dew point: 39 °F

Location of ApeldoornLocation

Historic Weather in Apeldoorn — Graph

°F

Apeldoorn temperature yesterday

Maximum temperature yesterday: 48 °F (at 2:25 PM)
Minimum temperature yesterday: 28 °F (at 12:25 AM)
Average temperature yesterday: 39 °F

Past Weeks' High & Low Weather Summary

 TemperatureHumidityPressure
High50 °F (Feb 14, 12:55 PM)100% (Feb 16, 2:25 AM)30.72 "Hg (Feb 16, 2:25 AM)
Low25 °F (Feb 16, 4:25 AM)53% (Feb 27, 4:25 PM)29.30 "Hg (Feb 23, 4:25 AM)
Average38 °F87%29.92 "Hg
* Reported Feb 14 3:55 AM — Mar 1 3:55 AM, Apeldoorn, Weather by CustomWeather, © 2015

Note: Actual official high and low records may vary slightly from our data, if they occured in-between our weather recording intervals... More about our weather records

Advertising

Apeldoorn weather history for previous 24 hours

 ConditionsComfort  
Time TempWeatherWind HumidityBarometerVisibility
3:55 AM
Sun, Mar 1
41 °FDrizzle. Mostly cloudy.17 mph87%29.50 "Hg4 mi
3:25 AM43 °FDrizzle. Overcast.20 mph81%29.50 "HgN/A
2:55 AM45 °FPartly cloudy.18 mph66%29.53 "HgN/A
2:25 AM45 °FOvercast.18 mph66%29.56 "HgN/A
1:55 AM45 °FOvercast.18 mph66%29.59 "HgN/A
1:25 AM45 °FMostly cloudy.17 mph66%29.62 "HgN/A
12:55 AM43 °FPassing clouds.17 mph71%29.62 "HgN/A
12:25 AM43 °FDrizzle. Overcast.18 mph66%29.65 "HgN/A
11:55 PM
Sat, Feb 28
43 °FDrizzle. Overcast.18 mph66%29.68 "HgN/A
11:25 PM45 °FOvercast.20 mph61%29.68 "HgN/A
10:55 PM45 °FOvercast.18 mph57%29.71 "HgN/A
10:25 PM45 °FOvercast.18 mph61%29.71 "HgN/A
9:55 PM45 °FOvercast.15 mph61%29.74 "HgN/A
9:25 PM45 °FOvercast.17 mph61%29.77 "HgN/A
8:55 PM45 °FOvercast.17 mph57%29.77 "HgN/A
8:25 PM45 °FOvercast.16 mph57%29.80 "HgN/A
7:55 PM45 °FOvercast.15 mph61%29.80 "HgN/A
7:25 PM45 °FOvercast.17 mph61%29.83 "HgN/A
6:55 PM45 °FMostly cloudy.16 mph61%29.83 "HgN/A
6:25 PM45 °FOvercast.16 mph61%29.83 "HgN/A
5:55 PM45 °FOvercast.16 mph61%29.86 "HgN/A
5:25 PM46 °FScattered clouds.17 mph53%29.86 "HgN/A
4:55 PM46 °FOvercast.16 mph53%29.89 "HgN/A
4:25 PM46 °FCool.18 mph57%29.89 "HgN/A
3:55 PM48 °FPassing clouds.17 mph54%29.92 "HgN/A
3:25 PM48 °FClear.18 mph54%29.92 "HgN/A
2:55 PM48 °FCool.21 mph58%29.92 "HgN/A
2:25 PM48 °FScattered clouds.20 mph58%29.95 "HgN/A
1:55 PM46 °FOvercast.16 mph57%29.98 "HgN/A
1:25 PM45 °FOvercast.15 mph61%29.98 "HgN/A
12:55 PM43 °FMostly cloudy.16 mph71%30.01 "HgN/A
12:25 PM43 °FOvercast.15 mph71%30.01 "HgN/A
11:55 AM41 °FPartly sunny.15 mph76%30.04 "HgN/A
11:25 AM39 °FPartly sunny.12 mph75%30.04 "HgN/A
10:55 AM37 °FScattered clouds.10 mph81%30.04 "HgN/A
10:25 AM36 °FScattered clouds.12 mph87%30.04 "HgN/A
9:55 AM36 °FOvercast.12 mph87%30.07 "HgN/A
9:25 AM34 °FOvercast.10 mph87%30.07 "HgN/A
8:55 AM34 °FOvercast.9 mph87%30.07 "HgN/A
8:25 AM34 °FFog.9 mph87%30.07 "Hg6 mi
7:55 AM32 °FIce fog.9 mph93%30.07 "Hg6 mi
7:25 AM32 °FScattered clouds.12 mph93%30.07 "HgN/A
6:55 AM32 °FPassing clouds.10 mph93%30.07 "HgN/A
6:25 AM30 °FIce fog.9 mph100%30.07 "Hg6 mi
5:55 AM30 °FIce fog.8 mph93%30.09 "Hg6 mi
5:25 AM32 °FIce fog.8 mph93%30.07 "Hg5 mi
4:55 AM30 °FIce fog.6 mph100%30.09 "Hg5 mi
4:25 AM30 °FIce fog.5 mph93%30.09 "Hg4 mi
Weather by CustomWeather, © 2015

See weather overviewHow to use our weather pages